Regional Weather Roundup
Issued by NWS

Home | Current Version | Previous Version | Text Only | Print | Product List | Glossary On
Versions: 1 2 3 4 5 6 7 8 9 10 11 12 13 14 15 16 17 18 19 20 21 22 23 24 25 26 27 28 29 30 31 32 33 34 35 36 37 38 39 40 41 42 43 44 45 46 47 48 49 50
142
ASUS44 KBMX 080010
RWRAL

ALABAMA REGIONAL WEATHER ROUNDUP
NATIONAL WEATHER SERVICE BIRMINGHAM AL
600 PM CST SUN FEB 07 2016

NOTE: "FAIR" INDICATES FEW OR NO CLOUDS BELOW 12,000 FEET
WITH NO SIGNIFICANT WEATHER AND/OR OBSTRUCTIONS TO VISIBILITY.

THE REMARK "TC" DENOTES TEMPERATURE IN DEGREES CELSIUS.

ALZ001>011-014-016>018-020-080100-
NORTH ALABAMA

CITY           SKY/WX    TMP DP  RH WIND       PRES   REMARKS
MUSCLE SHOALS  CLEAR     48  22  35 SW7       30.02F
6HR MIN TEMP:  47; 6HR MAX TEMP:  59;

HUNTSVILLE     PTCLDY    49  20  31 W9        30.01R
6HR MIN TEMP:  49; 6HR MAX TEMP:  57;

DECATUR        PTCLDY    50  21  32 W7        30.02R
6HR MIN TEMP:  50; 6HR MAX TEMP:  56;

HALEYVILLE     FAIR      47  21  35 SW5       30.04S
6HR MIN TEMP:  47; 6HR MAX TEMP:  56;

GADSDEN        CLEAR     47  25  42 SW3       30.02F
6HR MIN TEMP:  47; 6HR MAX TEMP:  57;

$$

ALZ012-013-022-023-030>036-040>044-080100-
WEST CENTRAL ALABAMA

CITY           SKY/WX    TMP DP  RH WIND       PRES   REMARKS
TUSCALOOSA     CLEAR     51  19  28 W3        30.07R
6HR MIN TEMP:  51; 6HR MAX TEMP:  58;

$$

ALZ015-024>027-033>036-040>044-080100-
CENTRAL ALABAMA

CITY           SKY/WX    TMP DP  RH WIND       PRES   REMARKS
BIRMINGHAM     PTCLDY    52  22  30 W7        30.05S
6HR MIN TEMP:  51; 6HR MAX TEMP:  57;

MONTGOMERY     CLEAR     52  25  35 W7        30.07R
6HR MIN TEMP:  52; 6HR MAX TEMP:  60;

SHELBY CO ARPT CLOUDY    49  23  36 CALM      30.05S
6HR MIN TEMP:  49; 6HR MAX TEMP:  58;

MAXWELL AFB    CLEAR     53  25  33 W3        30.05R
6HR MIN TEMP:  53; 6HR MAX TEMP:  59;

GREENVILLE     NOT AVBL
$$

ALZ019-021-028-029-037-038-045>048-080100-
EAST CENTRAL ALABAMA

CITY           SKY/WX    TMP DP  RH WIND       PRES   REMARKS
ANNISTON       CLEAR     43  28  55 SW3       30.02F
6HR MIN TEMP:  43; 6HR MAX TEMP:  57;

ALEXANDER CITY CLEAR     50  27  40 CALM      30.04S
6HR MIN TEMP:  50; 6HR MAX TEMP:  55;

AUBURN         CLEAR     51  21  30 W5        30.04R
6HR MIN TEMP:  51; 6HR MAX TEMP:  57;

$$

ALZ051>064-080100-
SOUTHWEST ALABAMA

CITY           SKY/WX    TMP DP  RH WIND       PRES   REMARKS
MOBILE         CLEAR     51  29  42 SW7       30.12R
6HR MIN TEMP:  51; 6HR MAX TEMP:  60;

BROOKLEY FIELD CLEAR     52  33  48 SW5       30.14R
6HR MIN TEMP:  52; 6HR MAX TEMP:  59;

EVERGREEN      CLEAR     52  25  35 CALM      30.09R
6HR MIN TEMP:  51; 6HR MAX TEMP:  61;

$$

ALZ049-050-065>069-080100-
SOUTHEAST ALABAMA

CITY           SKY/WX    TMP DP  RH WIND       PRES   REMARKS
DOTHAN         CLEAR     50  27  40 W8        30.08R
6HR MIN TEMP:  50; 6HR MAX TEMP:  58;

OZARK          CLEAR     52  27  38 W5        30.05R
6HR MIN TEMP:  52; 6HR MAX TEMP:  59;

TROY           CLEAR     52  26  36 NW5       30.06R
6HR MIN TEMP:  51; 6HR MAX TEMP:  60;

EUFAULA        FAIR      46  30  53 CALM      30.02R
6HR MIN TEMP:  46; 6HR MAX TEMP:  61;

$$




USA.gov is the U.S. government's official web portal to all federal, state and local government web resources and services.